Weather History for Yuma MCAS, AZ

Change the Weather History Date:

Friday, October 12, 2012

  Actual Average Record
Temperature  
Mean Temperature 69 °F 79 °F  
Max Temperature 79 °F 91 °F 109 °F (1950)
Min Temperature 58 °F 66 °F 46 °F (1924)
Degree Days  
Heating Degree Days 0 0  
Month to date heating degree days 0 0  
Since 1 July heating degree days 0 0  
Cooling Degree Days 4 14  
Month to date cooling degree days 225 193  
Year to date cooling degree days 4560 4367  
Growing Degree Days 18 (Base 50)    
Moisture  
Dew Point 45 °F    
Average Humidity 49    
Maximum Humidity 72    
Minimum Humidity 25    
Precipitation  
Precipitation T in 0.00 in 0.35 in (1887)
Month to date precipitation 0.03 0.10  
Year to date precipitation 2.37 2.72  
Sea Level Pressure  
Sea Level Pressure 30.01 in    
Wind  
Wind Speed 5 mph (WNW)    
Max Wind Speed 15 mph    
Max Gust Speed 20 mph    
Visibility 10 miles    
Events      
T = Trace of Precipitation, MM = Missing Value Source: NWS Daily Summary

Daily Weather History Graph

Daily Weather History Graph

Search for Another Location

Airport:

Trip Planner

Search our weather history database for the weather conditions in past years. The results will help you decide how hot, cold, wet, or windy it might be!

Date:

Astronomy

Oct. 12, 2012 Rise Set
Actual Time 6:40 AM MST 6:08 PM MST
Civil Twilight 6:15 AM MST 6:33 PM MST
Nautical Twilight 5:47 AM MST 7:01 PM MST
Astronomical Twilight 5:18 AM MST 7:30 PM MST
Moon 3:37 AM MST (10/12) 4:13 PM MST (10/12)
Length of Visible Light 12h 17m
Length of Day
11h 27m
Waning Crescent, 10% of the Moon is Illuminated
Oct 12
Waning Crescent
Oct 15
New
Oct 21
First Quarter
Oct 29
Full
Nov 6
Last Quarter

Hourly Weather History & Observations

Time (MST) Temp. Dew Point Humidity Pressure Visibility Wind Dir Wind Speed Gust Speed Precip Events Conditions
12:55 AM 64.0 °F 52.0 °F 65% 29.91 in 10.0 mi East 4.6 mph - 0.01 in   Mostly Cloudy
1:55 AM 63.0 °F 52.0 °F 67% 29.91 in 10.0 mi North 3.5 mph - N/A   Mostly Cloudy
2:55 AM 62.1 °F 54.0 °F 75% 29.92 in 10.0 mi Calm Calm - N/A   Mostly Cloudy
3:55 AM 61.0 °F 48.0 °F 62% 29.93 in 10.0 mi NW 4.6 mph - N/A   Clear
4:55 AM 61.0 °F 46.9 °F 60% 29.95 in 10.0 mi WSW 3.5 mph - N/A   Scattered Clouds
5:55 AM 59.0 °F 46.9 °F 64% 29.97 in 10.0 mi West 5.8 mph - N/A   Scattered Clouds
6:55 AM 59.0 °F 48.0 °F 67% 29.99 in 10.0 mi Calm Calm - N/A   Scattered Clouds
7:55 AM 60.1 °F 48.0 °F 64% 30.03 in 10.0 mi Calm Calm - N/A   Scattered Clouds
8:55 AM 64.0 °F 48.9 °F 58% 30.05 in 10.0 mi West 3.5 mph - N/A   Partly Cloudy
9:55 AM 68.0 °F 48.0 °F 49% 30.06 in 10.0 mi Variable 4.6 mph - N/A   Partly Cloudy
10:55 AM 72.0 °F 45.0 °F 38% 30.06 in 10.0 mi WNW 5.8 mph - N/A   Partly Cloudy
11:55 AM 75.0 °F 43.0 °F 32% 30.05 in 10.0 mi West 8.1 mph - N/A   Partly Cloudy
12:55 PM 77.0 °F 43.0 °F 30% 30.04 in 10.0 mi West 10.4 mph - N/A   Scattered Clouds
1:55 PM 77.0 °F 41.0 °F 28% 30.02 in 10.0 mi WNW 9.2 mph - N/A   Scattered Clouds
2:55 PM 77.0 °F 41.0 °F 28% 30.01 in 10.0 mi West 4.6 mph - N/A   Mostly Cloudy
3:55 PM 77.0 °F 41.0 °F 28% 30.01 in 10.0 mi NW 6.9 mph - N/A   Mostly Cloudy
4:55 PM 78.1 °F 39.0 °F 25% 30.01 in 10.0 mi WNW 6.9 mph - N/A   Scattered Clouds
5:55 PM 75.9 °F 39.9 °F 27% 30.01 in 10.0 mi WNW 4.6 mph - N/A   Partly Cloudy
6:55 PM 73.0 °F 41.0 °F 31% 30.02 in 10.0 mi NW 3.5 mph - N/A   Partly Cloudy
7:55 PM 73.0 °F 42.1 °F 33% 30.04 in 10.0 mi Calm Calm - N/A   Partly Cloudy
8:55 PM 70.0 °F 44.1 °F 39% 30.04 in 10.0 mi West 5.8 mph - N/A   Clear
9:55 PM 68.0 °F 46.9 °F 47% 30.06 in 10.0 mi WNW 6.9 mph - N/A   Clear
10:55 PM 66.9 °F 46.0 °F 47% 30.07 in 10.0 mi NW 8.1 mph - N/A   Clear
11:55 PM 66.9 °F 46.0 °F 47% 30.06 in 10.0 mi NNW 8.1 mph - N/A   Clear